Vorticity
5 4 1 3 -3 17 15 -13 15 5 -15 0 21 6 8 11 10 6 5 8 9 8
5 3 2 11 14 37 -28 8 11 0 -1 19 11 12 10 9 1 9 12 8 7 9
6 -1 12 11 7 -19 2 5 -9 26 1 -3 12 12 12 10 24 13 7 5 8 11
11 9 -3 10 13 15 16 -21 16 -8 23 22 9 18 24 19 6 5 6 9 11 12
5 -13 14 2 29 17 -0 18 -8 13 0 7 33 17 9 5 6 8 8 10 12 14
-7 21 -1 19 5 0 18 2 -3 35 8 31 12 -0 6 4 7 7 9 11 10 12
32 -5 9 7 3 8 10 10 10 17 24 16 10 2 6 6 7 8 9 10 12 12
13 5 10 6 5 5 9 11 14 29 13 7 2 5 7 7 7 8 10 12 12 14
3 7 2 4 5 4 16 13 27 9 9 4 6 7 7 7 7 10 11 12 13 14
7 9 8 5 7 18 11 27 5 8 7 6 7 6 7 8 9 10 10 11 14 14
5 3 4 14 9 16 26 14 10 7 6 5 6 8 9 9 11 11 12 12 15 12
7 5 22 1 29 18 13 10 7 5 5 6 8 8 9 11 12 13 11 13 14 13
16 13 13 23 12 16 8 6 5 4 4 5 7 9 10 12 12 12 11 11 13 13
3 17 16 19 8 6 5 4 4 4 6 6 8 10 12 13 11 13 11 11 12 10
Height
3128 3127 3126 3123 3121 3119 3116 3114 3111 3109 3106 3101 3097 3093 3088 3084 3079 3074 3069 3064 3059 3055
3121 3120 3118 3116 3112 3110 3109 3107 3103 3102 3097 3092 3087 3083 3079 3075 3070 3064 3060 3055 3050 3045
3115 3113 3111 3110 3108 3105 3103 3100 3097 3092 3088 3084 3080 3076 3073 3067 3061 3057 3052 3047 3041 3036
3110 3109 3106 3104 3102 3099 3097 3092 3090 3087 3082 3078 3074 3069 3063 3058 3054 3049 3043 3037 3032 3026
3105 3103 3101 3098 3096 3094 3091 3087 3084 3079 3075 3069 3064 3059 3055 3050 3044 3038 3033 3028 3022 3017
3099 3097 3094 3092 3090 3088 3084 3079 3074 3069 3063 3059 3055 3050 3045 3040 3035 3029 3024 3018 3012 3008
3093 3093 3089 3085 3081 3077 3073 3069 3064 3058 3054 3050 3046 3041 3036 3031 3026 3021 3015 3010 3004 3000
3086 3083 3079 3075 3071 3067 3063 3058 3053 3049 3046 3042 3038 3033 3028 3023 3018 3012 3006 3001 2996 2991
3078 3074 3070 3066 3062 3057 3053 3049 3046 3042 3039 3034 3029 3024 3019 3014 3008 3002 2997 2992 2987 2982
3069 3065 3062 3058 3054 3049 3045 3042 3039 3035 3030 3026 3021 3016 3010 3005 2999 2994 2989 2984 2979 2974
3062 3059 3054 3050 3045 3041 3038 3035 3031 3027 3022 3018 3013 3008 3002 2996 2990 2985 2980 2975 2970 2966
3054 3050 3046 3042 3038 3034 3031 3027 3023 3019 3014 3009 3005 2998 2993 2987 2981 2975 2970 2966 2961 2957
3046 3042 3038 3034 3030 3026 3023 3019 3014 3009 3004 2999 2994 2988 2983 2976 2970 2965 2960 2956 2953 2949
3038 3033 3029 3026 3023 3019 3014 3010 3005 3000 2995 2989 2983 2978 2972 2966 2959 2955 2950 2947 2944 2941